Weather in Yasnogorskiy

Russia / Kemerovo Oblast     55°20′39″N   85°53′29″E
temp.,
°C
wind,
m/s
gust,
m/s
humid.,
%
clouds,
%
prec.,
mm/h
press.,
hPa
HPBL,
m
19 september, sun
sun1901:00+6sw34785 0.0 101175
04:00+5ssw3681100 0.0 1011117
07:00+5s3881100 0.0 1010222
10:00+9ssw695996 0.0 10091018
13:00+12ssw6848100 0.0 10081481
16:00+14ssw6842100 0.0 10061804
19:00+10sse375993 0.0 1004150
22:00+9wnw5976100 0.1 1005423
20 september, mon
mon2001:00+7w488442 0.3 1005292
04:00+5wsw3790100 0.0 1007207
07:00+5sw498441 0.0 1008318
10:00+7wsw71067100 0.0 10101136
13:00+8wsw81251100 0.3 10111914
16:00+7wsw71163100 0.2 10121491
19:00+5wsw51075100 0.8 1012954
22:00+4wsw51089100 0.4 1012782
21 september, tue
tue2101:00+3wsw5996100 0.8 1012572
04:00+2wsw4897100 0.4 1012446
07:00+2wsw6981100 0.8 1013996
10:00+2wsw6982100 0.1 1014877
13:00+4wsw71078100 0.1 10141134
16:00+3wsw61197100 0.7 1015605
19:00+4w598992 1.1 1016735
22:00+2wsw489464 0.2 1018315
22 september, wed
wed2201:00+2wsw489287 0.2 1018442
04:00+1wsw4896100 0.0 1018442
07:00+1wsw4797100 0.3 1019444
10:00+1w5680100 0.1 1020797
13:00+4wsw5766100 0.2 10201383
16:00+4sw5669100 0.3 10201057
19:00+2sw3693100 0.5 1021412
22:00+1sw3598100 0.2 1021322
23 september, thu
thu2301:00+2wsw2499100 0.4 1021184
04:00+1sw3599100 0.2 1020275
07:00+1sw3697100 0.3 1021335
10:00+1sw3697100 0.3 1022432
13:00+4sw4579100 0.4 1022887
16:00+5sw3476100 0.6 1022967
19:00+3w2491100 1.1 1022218
22:00+2nnw1196100 0.1 1022139